Regional Weather Roundup
Issued by NWS Newport/Morehead, NC

Current Version | Previous Version | Graphics & Text | Print | Product List | Glossary On
Versions: 1 2 3 4 5 6 7 8 9 10 11 12 13 14 15 16 17 18 19 20 21 22 23 24 25 26 27 28 29 30 31 32 33 34 35 36 37 38 39 40 41 42 43 44 45 46 47 48 49 50
000 ASUS42 KMHX 241625 RWRMHX WEATHER ROUNDUP FOR EASTERN NORTH CAROLINA NATIONAL WEATHER SERVICE NEWPORT/MOREHEAD CITY NC 1100 AM EST FRI FEB 24 2017 NOTE: "FAIR" INDICATES FEW OR NO CLOUDS BELOW 12,000 FEET WITH NO SIGNIFICANT WEATHER AND/OR OBSTRUCTIONS TO VISIBILITY NCZ015>017-031-032-045>047-102-103-241700- NORTH COAST CITY SKY/WX TMP DP RH WIND PRES REMARKS EDENTON SUNNY 75 61 61 S8 29.95F ELIZABETH CITY SUNNY 74 58 57 SE10 29.95F KITTY HAWK NOT AVBL MANTEO MOSUNNY 70 59 68 E8 29.96F $$ NCZ045>047-081-094-103-104-241700- CENTRAL COAST CITY SKY/WX TMP DP RH WIND PRES REMARKS FRISCO MOSUNNY 74 60 61 E10 29.95S HAZE $$ NCZ095-097-098-100-101-241700- SOUTHERN COAST CITY SKY/WX TMP DP RH WIND PRES REMARKS BEAUFORT SUNNY 74 63 68 E8 29.92F CEDAR ISLAND NOT AVBL JACKSONVILLE MOSUNNY 73 62 68 E5 29.92F PINEY ISLAND MOSUNNY N/A N/A N/A E10 29.93F WILMINGTON MOSUNNY 75 61 61 VRB6 29.92F $$ NCZ011>013-027>030-043-044-078>080-089-090>093-098-241700- COASTAL PLAIN CITY SKY/WX TMP DP RH WIND PRES REMARKS AHOSKIE N/A 72 59 64 S6 29.95F CLINTON SUNNY 73 62 69 CALM 29.94F ELIZABETHTOWN SUNNY 73 59 61 CALM 29.92F GOLDSBORO MOSUNNY 73 63 70 E6 29.92F GREENVILLE MOSUNNY 73 59 60 SE5 29.95F HAVELOCK PTSUNNY 71 60 68 NE10 29.94F KENANSVILLE MOSUNNY 73 59 60 N3 29.93F KINSTON MOSUNNY 73 59 60 E5 29.94F NEW BERN MOSUNNY 73 62 68 E10 29.94F RICHLANDS PTSUNNY 73 60 63 E7 29.93F ROCKY MOUNT SUNNY 71 60 68 CALM 29.94F WASHINGTON MOSUNNY 74 60 62 E10 29.94F WHITEVILLE MOSUNNY 73 60 62 NE6 29.92F $$ AMZ130-135-150-152-154-156-158-170-250-252-270-ANZ085-086-088-633-658-670-241700- MARINE OBSERVATIONS STATION/POSITION TIME TEMP WIND PRES WAVE SWELL AIR SEA DIR/SP/G HT/PER HT/PER (UTC) (F) (DEG/KT/KT) (MB) (FT/S) (FT/S) CHESAPEAKE LIGHT NOT AVBL 64 E VA BEACH 1550 60 55 90/ 2/ 4 1014.8 6/11 5/11 DUCK 1600 65 49 100/ 5/ 6 1013.9 2 E DUCK 1600 53 N/A 4/13 2/13 OREGON INLET 1600 61 57 40/ 9/ 11 1014.1 13E OREGON INLT NOT AVBL HATTERAS CG 1600 71 62 90/ 8/ 10 1013.5 DIAMOND BUOY 1550 72 74 120/ 16/ 17 1013.5 8/ 9 7/ 9 CAPE LOOKOUT 1600 67 30/ 8/ 10 1013.0 BEAUFORT LAB 1600 71 60 80/ 7/ 9 1012.4 30 SE NEW RVR IN 1608 66 40/ 8/ 14 1012.9 30 SE NEW RVR IN 1613 70 N/A 9/10 3/11 27 SE WRIGHTSVLE 1608 66 66 50/ 12/ 17 1012.2 5 SE WRIGHTSVLE 1608 61 58 50/ 10/ 12 1013.1 225 S CAPE HAT 1550 69 70 60/ 17/ 21 1007.2 13/10 10/10 41 SE CHARLESTON 1550 68 70 20/ 12/ 16 1011.8 9/10 8/10 $$

USA.gov is the U.S. government's official web portal to all federal, state and local government web resources and services.